Time,TemperatureF,DewpointF,PressureIn,WindDirection,WindDirectionDegrees,WindSpeedMPH,WindSpeedGustMPH,Humidity,HourlyPrecipIn,Conditions,Clouds,dailyrainin,SoftwareType,DateUTC
2013-01-13 00:00:00,67.4,65.6,30.09,East,96,0.0,0.0,94,0.00,CLR,,0.00,WeatherDisplay:10.37,2013-01-13 05:00:00,
2013-01-13 00:01:00,67.4,65.6,30.09,East,96,0.0,0.0,94,0.00,CLR,,0.00,WeatherDisplay:10.37,2013-01-13 05:01:00,
2013-01-13 00:02:00,67.4,65.6,30.09,East,96,0.0,0.0,94,0.00,CLR,,0.00,WeatherDisplay:10.37,2013-01-13 05:02:00,
2013-01-13 00:07:00,67.3,65.5,30.09,East,96,0.0,0.0,94,0.00,CLR,,0.00,WeatherDisplay:10.37,2013-01-13 05:07:00,
2013-01-13 00:12:00,67.3,65.5,30.09,East,96,0.0,0.0,94,0.00,CLR,,0.00,WeatherDisplay:10.37,2013-01-13 05:12:00,
2013-01-13 00:17:00,67.2,65.4,30.09,East,96,0.0,0.0,94,0.00,CLR,,0.00,WeatherDisplay:10.37,2013-01-13 05:17:00,
2013-01-13 00:22:00,67.2,65.4,30.09,East,96,0.0,0.0,94,0.00,CLR,,0.00,WeatherDisplay:10.37,2013-01-13 05:22:00,
2013-01-13 00:27:00,67.2,65.4,30.08,East,96,0.0,0.0,94,0.00,CLR,,0.00,WeatherDisplay:10.37,2013-01-13 05:27:00,
2013-01-13 00:32:00,67.3,65.5,30.09,East,96,0.0,0.0,94,0.00,CLR,,0.00,WeatherDisplay:10.37,2013-01-13 05:32:00,
2013-01-13 00:37:00,67.3,65.5,30.09,East,96,0.0,0.0,94,0.00,CLR,,0.00,WeatherDisplay:10.37,2013-01-13 05:37:00,
2013-01-13 00:42:00,67.2,65.4,30.09,East,96,0.0,0.0,94,0.00,CLR,,0.00,WeatherDisplay:10.37,2013-01-13 05:42:00,
2013-01-13 00:47:00,67.1,65.3,30.09,East,96,0.0,0.0,94,0.00,CLR,,0.00,WeatherDisplay:10.37,2013-01-13 05:47:00,
2013-01-13 00:52:00,67.0,65.2,30.09,East,96,0.0,0.0,94,0.00,CLR,,0.00,WeatherDisplay:10.37,2013-01-13 05:52:00,
2013-01-13 00:57:00,67.2,65.7,30.09,East,96,0.0,0.0,95,0.00,CLR,,0.00,WeatherDisplay:10.37,2013-01-13 05:57:00,
2013-01-13 01:02:00,67.7,66.2,30.09,East,96,0.0,0.0,95,0.00,CLR,,0.00,WeatherDisplay:10.37,2013-01-13 06:02:00,
2013-01-13 01:07:00,67.7,66.2,30.08,East,96,0.0,0.0,95,0.00,CLR,,0.00,WeatherDisplay:10.37,2013-01-13 06:07:00,
2013-01-13 01:12:00,67.7,65.9,30.08,East,96,0.0,0.0,94,0.00,CLR,,0.00,WeatherDisplay:10.37,2013-01-13 06:12:00,
2013-01-13 01:17:00,67.6,65.8,30.08,East,96,0.0,0.0,94,0.00,CLR,,0.00,WeatherDisplay:10.37,2013-01-13 06:17:00,
2013-01-13 01:22:00,67.6,66.1,30.08,East,96,0.0,0.0,95,0.00,CLR,,0.00,WeatherDisplay:10.37,2013-01-13 06:22:00,
2013-01-13 01:27:00,67.7,66.2,30.08,East,96,0.0,0.0,95,0.00,CLR,,0.00,WeatherDisplay:10.37,2013-01-13 06:27:00,
2013-01-13 01:32:00,67.9,66.4,30.08,East,96,0.0,0.0,95,0.00,CLR,,0.00,WeatherDisplay:10.37,2013-01-13 06:32:00,
2013-01-13 01:37:00,68.0,66.5,30.08,East,96,0.0,0.0,95,0.00,CLR,,0.00,WeatherDisplay:10.37,2013-01-13 06:37:00,
2013-01-13 01:42:00,68.0,66.2,30.08,East,96,0.0,0.0,94,0.00,CLR,,0.00,WeatherDisplay:10.37,2013-01-13 06:42:00,
2013-01-13 01:47:00,67.9,66.1,30.08,East,96,0.0,0.0,94,0.00,CLR,,0.00,WeatherDisplay:10.37,2013-01-13 06:47:00,
2013-01-13 01:52:00,67.9,66.4,30.08,East,96,0.0,0.0,95,0.00,CLR,,0.00,WeatherDisplay:10.37,2013-01-13 06:52:00,
2013-01-13 01:57:00,67.9,66.4,30.08,East,96,0.0,0.0,95,0.00,CLR,,0.00,WeatherDisplay:10.37,2013-01-13 06:57:00,
2013-01-13 02:02:00,67.9,66.4,30.08,East,96,0.0,0.0,95,0.00,CLR,,0.00,WeatherDisplay:10.37,2013-01-13 07:02:00,
2013-01-13 02:07:00,67.7,66.2,30.08,East,96,0.0,0.0,95,0.00,CLR,,0.00,WeatherDisplay:10.37,2013-01-13 07:07:00,
2013-01-13 02:12:00,67.6,65.8,30.08,East,96,0.0,0.0,94,0.00,CLR,,0.00,WeatherDisplay:10.37,2013-01-13 07:12:00,
2013-01-13 02:17:00,67.4,65.6,30.08,East,96,0.0,0.0,94,0.00,CLR,,0.00,WeatherDisplay:10.37,2013-01-13 07:17:00,
2013-01-13 02:22:00,67.4,65.9,30.08,East,96,0.0,0.0,95,0.00,CLR,,0.00,WeatherDisplay:10.37,2013-01-13 07:22:00,
2013-01-13 02:27:00,67.3,65.8,30.08,East,96,0.0,0.0,95,0.00,CLR,,0.00,WeatherDisplay:10.37,2013-01-13 07:27:00,
2013-01-13 02:32:00,67.3,65.8,30.08,East,96,0.0,0.0,95,0.00,CLR,,0.00,WeatherDisplay:10.37,2013-01-13 07:32:00,
2013-01-13 02:37:00,67.2,65.7,30.08,East,96,0.0,0.0,95,0.00,CLR,,0.00,WeatherDisplay:10.37,2013-01-13 07:37:00,
2013-01-13 02:42:00,67.2,65.7,30.08,East,96,0.0,0.0,95,0.00,CLR,,0.00,WeatherDisplay:10.37,2013-01-13 07:42:00,
2013-01-13 02:47:00,67.3,65.8,30.08,East,96,0.0,0.0,95,0.00,CLR,,0.00,WeatherDisplay:10.37,2013-01-13 07:47:00,
2013-01-13 02:52:00,67.3,65.8,30.08,East,96,0.0,0.0,95,0.00,CLR,,0.00,WeatherDisplay:10.37,2013-01-13 07:52:00,
2013-01-13 02:57:00,67.2,65.7,30.08,East,96,0.0,0.0,95,0.00,CLR,,0.00,WeatherDisplay:10.37,2013-01-13 07:57:00,
2013-01-13 03:02:00,67.4,66.2,30.08,East,96,0.0,0.0,96,0.00,CLR,,0.00,WeatherDisplay:10.37,2013-01-13 08:02:00,
2013-01-13 03:07:00,67.6,66.4,30.08,East,96,0.3,1.0,96,0.00,CLR,,0.00,WeatherDisplay:10.37,2013-01-13 08:07:00,
2013-01-13 03:12:00,67.6,66.4,30.07,East,96,1.2,2.3,96,0.00,CLR,,0.00,WeatherDisplay:10.37,2013-01-13 08:12:00,
2013-01-13 03:17:00,67.6,66.1,30.07,East,96,2.3,3.5,95,0.00,CLR,,0.00,WeatherDisplay:10.37,2013-01-13 08:17:00,
2013-01-13 03:22:00,67.8,66.3,30.07,East,96,1.8,3.5,95,0.00,CLR,,0.00,WeatherDisplay:10.37,2013-01-13 08:22:00,
2013-01-13 03:27:00,68.3,66.2,30.07,East,96,1.3,4.6,93,0.00,CLR,,0.00,WeatherDisplay:10.37,2013-01-13 08:27:00,
2013-01-13 03:32:00,68.8,66.1,30.06,East,96,1.8,2.3,91,0.00,CLR,,0.00,WeatherDisplay:10.37,2013-01-13 08:32:00,
2013-01-13 03:37:00,69.2,66.1,30.07,East,96,2.1,3.5,90,0.00,CLR,,0.00,WeatherDisplay:10.37,2013-01-13 08:37:00,
2013-01-13 03:42:00,69.5,66.1,30.07,East,96,2.5,3.5,89,0.00,CLR,,0.00,WeatherDisplay:10.37,2013-01-13 08:42:00,
2013-01-13 03:47:00,70.0,66.3,30.06,East,96,3.4,5.8,88,0.00,CLR,,0.00,WeatherDisplay:10.37,2013-01-13 08:47:00,
2013-01-13 03:52:00,70.3,66.2,30.06,East,96,2.6,5.0,87,0.00,CLR,,0.00,WeatherDisplay:10.37,2013-01-13 08:52:00,
2013-01-13 03:58:00,70.6,66.5,30.06,East,96,2.4,3.5,87,0.00,CLR,,0.00,WeatherDisplay:10.37,2013-01-13 08:58:00,
2013-01-13 04:03:00,70.8,66.4,30.06,SE,140,4.1,9.2,86,0.00,CLR,,0.00,WeatherDisplay:10.37,2013-01-13 09:03:00,
2013-01-13 04:08:00,71.2,66.8,30.06,ESE,113,4.1,8.1,86,0.00,CLR,,0.00,WeatherDisplay:10.37,2013-01-13 09:08:00,
2013-01-13 04:13:00,71.6,67.2,30.06,ESE,106,3.1,8.1,86,0.00,CLR,,0.00,WeatherDisplay:10.37,2013-01-13 09:13:00,
2013-01-13 04:18:00,71.8,67.0,30.07,ESE,105,1.2,3.5,85,0.00,CLR,,0.00,WeatherDisplay:10.37,2013-01-13 09:18:00,
2013-01-13 04:23:00,71.8,67.0,30.07,ESE,115,3.1,4.6,85,0.00,CLR,,0.00,WeatherDisplay:10.37,2013-01-13 09:23:00,
2013-01-13 04:28:00,71.8,66.7,30.07,SE,140,2.3,4.6,84,0.00,CLR,,0.00,WeatherDisplay:10.37,2013-01-13 09:28:00,
2013-01-13 04:33:00,71.8,66.7,30.07,ESE,105,2.8,4.6,84,0.00,CLR,,0.00,WeatherDisplay:10.37,2013-01-13 09:33:00,
2013-01-13 04:38:00,71.7,66.6,30.07,East,94,2.4,3.5,84,0.00,CLR,,0.00,WeatherDisplay:10.37,2013-01-13 09:38:00,
2013-01-13 04:43:00,71.6,66.5,30.07,East,100,2.8,4.6,84,0.00,CLR,,0.00,WeatherDisplay:10.37,2013-01-13 09:43:00,
2013-01-13 04:48:00,71.6,66.2,30.07,ESE,123,1.4,3.5,83,0.00,CLR,,0.00,WeatherDisplay:10.37,2013-01-13 09:48:00,
2013-01-13 04:53:00,71.5,66.4,30.07,ESE,117,1.3,3.5,84,0.00,CLR,,0.00,WeatherDisplay:10.37,2013-01-13 09:53:00,
2013-01-13 04:58:00,71.3,66.2,30.07,ESE,117,1.4,1.4,84,0.00,CLR,,0.00,WeatherDisplay:10.37,2013-01-13 09:58:00,
2013-01-13 05:03:00,71.3,65.9,30.07,ESE,117,0.6,1.1,83,0.00,CLR,,0.00,WeatherDisplay:10.37,2013-01-13 10:03:00,
2013-01-13 05:08:00,71.1,66.0,30.07,ESE,118,0.0,1.1,84,0.00,CLR,,0.00,WeatherDisplay:10.37,2013-01-13 10:08:00,
2013-01-13 05:13:00,71.0,65.6,30.07,ESE,119,2.0,3.5,83,0.00,CLR,,0.00,WeatherDisplay:10.37,2013-01-13 10:13:00,
2013-01-13 05:18:00,71.0,65.6,30.07,ESE,119,0.1,1.1,83,0.00,CLR,,0.00,WeatherDisplay:10.37,2013-01-13 10:18:00,
2013-01-13 05:23:00,71.0,65.6,30.07,ESE,119,1.3,2.3,83,0.00,CLR,,0.00,WeatherDisplay:10.37,2013-01-13 10:23:00,
2013-01-13 05:28:00,70.9,65.8,30.08,ESE,119,1.5,2.3,84,0.00,CLR,,0.00,WeatherDisplay:10.37,2013-01-13 10:28:00,
2013-01-13 05:33:00,70.8,65.7,30.08,ESE,119,0.0,0.0,84,0.00,CLR,,0.00,WeatherDisplay:10.37,2013-01-13 10:33:00,
2013-01-13 05:38:00,70.7,66.0,30.07,ESE,119,0.2,3.5,85,0.00,CLR,,0.00,WeatherDisplay:10.37,2013-01-13 10:38:00,
2013-01-13 05:43:00,70.5,65.8,30.08,ESE,119,0.9,1.1,85,0.00,CLR,,0.00,WeatherDisplay:10.37,2013-01-13 10:43:00,
2013-01-13 05:48:00,70.4,66.0,30.07,ESE,119,0.9,3.5,86,0.00,CLR,,0.00,WeatherDisplay:10.37,2013-01-13 10:48:00,
2013-01-13 05:53:00,70.3,65.9,30.07,ESE,119,0.7,1.1,86,0.00,CLR,,0.00,WeatherDisplay:10.37,2013-01-13 10:53:00,
2013-01-13 05:58:00,70.2,65.8,30.07,ESE,119,0.1,2.3,86,0.00,CLR,,0.00,WeatherDisplay:10.37,2013-01-13 10:58:00,
2013-01-13 06:03:00,70.2,65.8,30.07,ESE,119,0.5,2.3,86,0.00,CLR,,0.00,WeatherDisplay:10.37,2013-01-13 11:03:00,
2013-01-13 06:08:00,70.2,66.1,30.08,ESE,119,0.6,0.0,87,0.00,CLR,,0.00,WeatherDisplay:10.37,2013-01-13 11:08:00,
2013-01-13 06:13:00,70.1,66.0,30.08,ESE,119,0.8,1.1,87,0.00,CLR,,0.00,WeatherDisplay:10.37,2013-01-13 11:13:00,
2013-01-13 06:18:00,70.1,66.0,30.07,ESE,119,1.5,3.5,87,0.00,CLR,,0.00,WeatherDisplay:10.37,2013-01-13 11:18:00,
2013-01-13 06:23:00,70.1,66.0,30.07,ESE,119,1.1,1.1,87,0.00,CLR,,0.00,WeatherDisplay:10.37,2013-01-13 11:23:00,
2013-01-13 06:28:00,70.1,66.0,30.07,ESE,119,0.0,0.0,87,0.00,CLR,,0.00,WeatherDisplay:10.37,2013-01-13 11:28:00,
2013-01-13 06:33:00,70.1,66.0,30.08,ESE,119,0.1,1.1,87,0.00,CLR,,0.00,WeatherDisplay:10.37,2013-01-13 11:33:00,
2013-01-13 06:38:00,70.1,66.0,30.07,ESE,119,1.1,2.3,87,0.00,CLR,,0.00,WeatherDisplay:10.37,2013-01-13 11:38:00,
2013-01-13 06:43:00,70.3,66.2,30.07,ESE,119,1.4,2.3,87,0.00,CLR,,0.00,WeatherDisplay:10.37,2013-01-13 11:43:00,
2013-01-13 06:48:00,70.4,66.3,30.07,ESE,119,0.9,3.5,87,0.00,CLR,,0.00,WeatherDisplay:10.37,2013-01-13 11:48:00,
2013-01-13 06:53:00,70.4,66.0,30.07,ESE,119,1.7,2.3,86,0.00,CLR,,0.00,WeatherDisplay:10.37,2013-01-13 11:53:00,
2013-01-13 06:58:00,70.4,66.0,30.07,ESE,119,1.3,2.3,86,0.00,CLR,,0.00,WeatherDisplay:10.37,2013-01-13 11:58:00,
2013-01-13 07:03:00,70.4,66.3,30.07,ESE,119,1.8,2.3,87,0.00,CLR,,0.00,WeatherDisplay:10.37,2013-01-13 12:03:00,
2013-01-13 07:08:00,70.4,66.0,30.07,ESE,119,2.0,3.5,86,0.00,CLR,,0.00,WeatherDisplay:10.37,2013-01-13 12:08:00,
2013-01-13 07:13:00,70.5,66.1,30.07,ESE,119,0.8,2.3,86,0.00,CLR,,0.00,WeatherDisplay:10.37,2013-01-13 12:13:00,
2013-01-13 07:18:00,70.5,66.1,30.07,ESE,119,1.2,4.0,86,0.00,CLR,,0.00,WeatherDisplay:10.37,2013-01-13 12:18:00,
2013-01-13 07:23:00,70.6,66.2,30.07,ESE,119,1.5,3.5,86,0.00,CLR,,0.00,WeatherDisplay:10.37,2013-01-13 12:23:00,
2013-01-13 07:28:00,70.8,66.4,30.08,ESE,119,2.4,4.6,86,0.00,CLR,,0.00,WeatherDisplay:10.37,2013-01-13 12:28:00,
2013-01-13 07:33:00,70.9,66.5,30.07,ESE,119,2.1,3.5,86,0.00,CLR,,0.00,WeatherDisplay:10.37,2013-01-13 12:33:00,
2013-01-13 07:38:00,71.1,66.7,30.08,ESE,119,3.4,4.6,86,0.00,CLR,,0.00,WeatherDisplay:10.37,2013-01-13 12:38:00,
2013-01-13 07:43:00,71.2,66.8,30.08,ESE,119,1.6,3.5,86,0.00,CLR,,0.00,WeatherDisplay:10.37,2013-01-13 12:43:00,
2013-01-13 07:48:00,71.3,66.9,30.08,ESE,113,0.3,2.3,86,0.00,CLR,,0.00,WeatherDisplay:10.37,2013-01-13 12:48:00,
2013-01-13 07:53:00,71.5,67.1,30.08,ESE,112,0.8,2.3,86,0.00,CLR,,0.00,WeatherDisplay:10.37,2013-01-13 12:53:00,
2013-01-13 07:58:00,71.7,67.3,30.08,ESE,117,1.4,2.3,86,0.00,CLR,,0.00,WeatherDisplay:10.37,2013-01-13 12:58:00,
2013-01-13 08:03:00,72.2,67.8,30.07,ESE,107,1.2,2.3,86,0.00,CLR,,0.00,WeatherDisplay:10.37,2013-01-13 13:03:00,
2013-01-13 08:08:00,72.6,67.8,30.08,ESE,108,3.8,4.6,85,0.00,CLR,,0.00,WeatherDisplay:10.37,2013-01-13 13:08:00,
2013-01-13 08:13:00,73.0,67.9,30.08,ESE,103,1.7,2.3,84,0.00,CLR,,0.00,WeatherDisplay:10.37,2013-01-13 13:13:00,
2013-01-13 08:19:00,73.3,68.2,30.08,East,101,2.6,5.8,84,0.00,CLR,,0.00,WeatherDisplay:10.37,2013-01-13 13:19:00,
2013-01-13 08:24:00,73.4,67.9,30.08,SE,126,4.2,6.9,83,0.00,CLR,,0.00,WeatherDisplay:10.37,2013-01-13 13:24:00,
2013-01-13 08:29:00,73.5,68.4,30.08,East,80,5.1,6.9,84,0.00,CLR,,0.00,WeatherDisplay:10.37,2013-01-13 13:29:00,
2013-01-13 08:34:00,73.5,68.0,30.08,ESE,107,4.9,4.9,83,0.00,CLR,,0.00,WeatherDisplay:10.37,2013-01-13 13:34:00,
2013-01-13 08:39:00,73.6,68.1,30.08,East,96,3.4,10.4,83,0.00,CLR,,0.00,WeatherDisplay:10.37,2013-01-13 13:39:00,
2013-01-13 08:44:00,73.7,68.2,30.08,ENE,65,9.0,11.5,83,0.00,CLR,,0.00,WeatherDisplay:10.37,2013-01-13 13:44:00,
2013-01-13 08:49:00,73.9,68.4,30.08,East,98,6.1,9.2,83,0.00,CLR,,0.00,WeatherDisplay:10.37,2013-01-13 13:49:00,
2013-01-13 08:54:00,74.0,68.5,30.08,East,96,3.9,6.9,83,0.00,CLR,,0.00,WeatherDisplay:10.37,2013-01-13 13:54:00,
2013-01-13 08:59:00,74.2,68.7,30.08,ESE,123,6.4,9.2,83,0.00,CLR,,0.00,WeatherDisplay:10.37,2013-01-13 13:59:00,
2013-01-13 09:04:00,74.3,68.8,30.08,ESE,103,5.8,11.5,83,0.00,CLR,,0.00,WeatherDisplay:10.37,2013-01-13 14:04:00,
2013-01-13 09:09:00,74.4,68.9,30.08,ESE,113,5.8,6.9,83,0.00,CLR,,0.00,WeatherDisplay:10.37,2013-01-13 14:09:00,
2013-01-13 09:14:00,74.4,68.9,30.08,ESE,117,6.1,9.2,83,0.00,CLR,,0.00,WeatherDisplay:10.37,2013-01-13 14:14:00,
2013-01-13 09:19:00,74.6,69.1,30.09,ESE,104,2.0,3.5,83,0.00,CLR,,0.00,WeatherDisplay:10.37,2013-01-13 14:19:00,
2013-01-13 09:24:00,75.0,69.5,30.09,East,98,3.1,4.6,83,0.00,CLR,,0.00,WeatherDisplay:10.37,2013-01-13 14:24:00,
2013-01-13 09:29:00,75.3,68.7,30.09,ESE,116,8.3,15.0,80,0.00,CLR,,0.00,WeatherDisplay:10.37,2013-01-13 14:29:00,
2013-01-13 09:34:00,75.6,68.6,30.09,ESE,107,5.5,11.5,79,0.00,CLR,,0.00,WeatherDisplay:10.37,2013-01-13 14:34:00,
2013-01-13 09:39:00,76.0,68.6,30.09,ESE,106,7.3,12.7,78,0.00,CLR,,0.00,WeatherDisplay:10.37,2013-01-13 14:39:00,
2013-01-13 09:44:00,76.6,68.5,30.09,ESE,121,10.6,15.0,76,0.00,CLR,,0.00,WeatherDisplay:10.37,2013-01-13 14:44:00,
2013-01-13 09:49:00,76.6,67.7,30.09,SE,124,9.2,17.3,74,0.00,CLR,,0.00,WeatherDisplay:10.37,2013-01-13 14:49:00,
2013-01-13 09:54:00,76.8,67.9,30.09,ESE,109,11.7,17.3,74,0.00,CLR,,0.00,WeatherDisplay:10.37,2013-01-13 14:54:00,
2013-01-13 09:59:00,76.9,68.0,30.10,SE,144,10.7,15.0,74,0.00,CLR,,0.00,WeatherDisplay:10.37,2013-01-13 14:59:00,
2013-01-13 10:04:00,76.9,68.0,30.09,SE,125,8.0,12.7,74,0.00,CLR,,0.00,WeatherDisplay:10.37,2013-01-13 15:04:00,
2013-01-13 10:09:00,76.5,67.6,30.09,SE,134,6.9,10.4,74,0.00,CLR,,0.00,WeatherDisplay:10.37,2013-01-13 15:09:00,
2013-01-13 10:14:00,76.6,68.1,30.09,ESE,120,6.5,11.5,75,0.00,CLR,,0.00,WeatherDisplay:10.37,2013-01-13 15:14:00,
2013-01-13 10:19:00,76.3,67.8,30.09,East,93,6.7,10.4,75,0.00,CLR,,0.00,WeatherDisplay:10.37,2013-01-13 15:19:00,
2013-01-13 10:24:00,76.4,67.9,30.09,ESE,112,5.7,9.2,75,0.00,CLR,,0.00,WeatherDisplay:10.37,2013-01-13 15:24:00,
2013-01-13 10:35:00,77.0,68.1,30.09,East,92,4.6,8.0,74,0.00,CLR,,0.00,WeatherDisplay:10.37,2013-01-13 15:35:00,
2013-01-13 10:40:00,77.1,67.8,30.09,East,86,8.0,11.5,73,0.00,CLR,,0.00,WeatherDisplay:10.37,2013-01-13 15:40:00,
2013-01-13 10:45:00,76.6,68.1,30.09,ESE,111,5.0,11.5,75,0.00,CLR,,0.00,WeatherDisplay:10.37,2013-01-13 15:45:00,
2013-01-13 10:50:00,76.3,67.8,30.09,SE,126,4.5,9.2,75,0.00,CLR,,0.00,WeatherDisplay:10.37,2013-01-13 15:50:00,
2013-01-13 10:55:00,76.6,68.1,30.09,ESE,107,6.4,14.0,75,0.00,CLR,,0.00,WeatherDisplay:10.37,2013-01-13 15:55:00,
2013-01-13 11:00:00,77.0,67.7,30.09,ESE,107,9.0,11.5,73,0.00,CLR,,0.00,WeatherDisplay:10.37,2013-01-13 16:00:00,
2013-01-13 11:05:00,76.8,67.1,30.09,SE,132,6.5,10.4,72,0.00,CLR,,0.00,WeatherDisplay:10.37,2013-01-13 16:05:00,
2013-01-13 11:10:00,76.9,67.2,30.09,East,92,9.7,16.1,72,0.00,CLR,,0.00,WeatherDisplay:10.37,2013-01-13 16:10:00,
2013-01-13 11:15:00,77.1,67.4,30.09,SE,146,5.9,9.0,72,0.00,CLR,,0.00,WeatherDisplay:10.37,2013-01-13 16:15:00,
2013-01-13 11:20:00,77.4,67.3,30.10,SE,126,4.8,11.5,71,0.00,CLR,,0.00,WeatherDisplay:10.37,2013-01-13 16:20:00,
2013-01-13 11:25:00,77.2,67.1,30.10,East,96,8.5,9.0,71,0.00,CLR,,0.00,WeatherDisplay:10.37,2013-01-13 16:25:00,
2013-01-13 11:30:00,77.2,67.1,30.10,East,101,5.3,11.5,71,0.00,CLR,,0.00,WeatherDisplay:10.37,2013-01-13 16:30:00,
2013-01-13 11:35:00,77.6,67.0,30.10,SE,136,5.9,9.2,70,0.00,CLR,,0.00,WeatherDisplay:10.37,2013-01-13 16:35:00,
2013-01-13 11:40:00,77.5,65.2,30.10,SE,134,8.3,11.5,66,0.00,CLR,,0.00,WeatherDisplay:10.37,2013-01-13 16:40:00,
2013-01-13 11:45:00,77.6,66.2,30.10,SE,126,4.1,6.9,68,0.00,CLR,,0.00,WeatherDisplay:10.37,2013-01-13 16:45:00,
2013-01-13 11:50:00,77.9,66.9,30.10,SE,138,4.2,9.2,69,0.00,CLR,,0.00,WeatherDisplay:10.37,2013-01-13 16:50:00,
2013-01-13 11:55:00,77.8,65.5,30.10,ESE,111,5.0,10.4,66,0.00,CLR,,0.00,WeatherDisplay:10.37,2013-01-13 16:55:00,
2013-01-13 12:00:00,78.4,66.1,30.10,SE,138,6.4,8.1,66,0.00,CLR,,0.00,WeatherDisplay:10.37,2013-01-13 17:00:00,
2013-01-13 12:05:00,78.6,66.3,30.10,SE,131,6.3,8.1,66,0.00,CLR,,0.00,WeatherDisplay:10.37,2013-01-13 17:05:00,
2013-01-13 12:10:00,77.9,66.1,30.10,ESE,115,2.4,3.5,67,0.00,CLR,,0.00,WeatherDisplay:10.37,2013-01-13 17:10:00,
2013-01-13 12:15:00,77.6,65.8,30.10,ESE,120,3.3,4.6,67,0.00,CLR,,0.00,WeatherDisplay:10.37,2013-01-13 17:15:00,
2013-01-13 12:20:00,78.1,66.2,30.10,ENE,58,5.7,6.9,67,0.00,CLR,,0.00,WeatherDisplay:10.37,2013-01-13 17:20:00,
2013-01-13 12:25:00,78.4,67.0,30.10,SSE,165,4.4,5.8,68,0.00,CLR,,0.00,WeatherDisplay:10.37,2013-01-13 17:25:00,
2013-01-13 12:30:00,78.3,66.0,30.10,SSE,156,1.7,3.5,66,0.00,CLR,,0.00,WeatherDisplay:10.37,2013-01-13 17:30:00,
2013-01-13 12:35:00,78.5,66.6,30.09,SSE,163,6.0,8.1,67,0.00,CLR,,0.00,WeatherDisplay:10.37,2013-01-13 17:35:00,
2013-01-13 12:40:00,78.6,66.7,30.09,SSE,148,8.4,10.4,67,0.00,CLR,,0.00,WeatherDisplay:10.37,2013-01-13 17:40:00,
2013-01-13 12:45:00,78.2,66.3,30.09,SE,124,7.4,11.5,67,0.00,CLR,,0.00,WeatherDisplay:10.37,2013-01-13 17:45:00,
2013-01-13 12:50:00,78.2,66.8,30.09,SSE,160,4.8,6.9,68,0.00,CLR,,0.00,WeatherDisplay:10.37,2013-01-13 17:50:00,
2013-01-13 12:55:00,78.5,66.6,30.09,SE,133,5.5,6.9,67,0.00,CLR,,0.00,WeatherDisplay:10.37,2013-01-13 17:55:00,
2013-01-13 13:00:00,78.6,65.8,30.09,East,100,5.4,9.0,65,0.00,CLR,,0.00,WeatherDisplay:10.37,2013-01-13 18:00:00,
2013-01-13 13:05:00,78.6,67.2,30.09,East,83,3.3,8.1,68,0.00,CLR,,0.00,WeatherDisplay:10.37,2013-01-13 18:05:00,
2013-01-13 13:10:00,78.8,67.3,30.09,SE,145,3.9,6.9,68,0.00,CLR,,0.00,WeatherDisplay:10.37,2013-01-13 18:10:00,
2013-01-13 13:15:00,78.6,67.6,30.09,SSE,149,5.7,6.9,69,0.00,CLR,,0.00,WeatherDisplay:10.37,2013-01-13 18:15:00,
2013-01-13 13:20:00,77.9,66.9,30.09,SSE,148,5.4,9.2,69,0.00,CLR,,0.00,WeatherDisplay:10.37,2013-01-13 18:20:00,
2013-01-13 13:25:00,77.5,67.4,30.09,East,101,1.6,2.3,71,0.00,CLR,,0.00,WeatherDisplay:10.37,2013-01-13 18:25:00,
2013-01-13 13:30:00,77.3,67.2,30.09,SE,143,2.9,3.5,71,0.00,CLR,,0.00,WeatherDisplay:10.37,2013-01-13 18:30:00,
2013-01-13 13:35:00,77.2,67.1,30.09,SE,126,3.4,3.5,71,0.00,CLR,,0.00,WeatherDisplay:10.37,2013-01-13 18:35:00,
2013-01-13 13:40:00,77.3,67.2,30.09,SSE,160,3.0,4.6,71,0.00,CLR,,0.00,WeatherDisplay:10.37,2013-01-13 18:40:00,
2013-01-13 13:45:00,77.6,67.0,30.09,SE,144,2.9,4.6,70,0.00,CLR,,0.00,WeatherDisplay:10.37,2013-01-13 18:45:00,
2013-01-13 13:50:00,78.0,67.4,30.08,East,82,7.7,9.2,70,0.00,CLR,,0.00,WeatherDisplay:10.37,2013-01-13 18:50:00,
2013-01-13 13:55:00,78.4,67.8,30.08,ESE,104,2.8,9.2,70,0.00,CLR,,0.00,WeatherDisplay:10.37,2013-01-13 18:55:00,
2013-01-13 14:00:00,78.4,67.4,30.08,ESE,104,5.7,6.9,69,0.00,CLR,,0.00,WeatherDisplay:10.37,2013-01-13 19:00:00,
2013-01-13 14:05:00,78.5,67.5,30.08,SE,138,6.9,9.2,69,0.00,CLR,,0.00,WeatherDisplay:10.37,2013-01-13 19:05:00,
2013-01-13 14:10:00,78.3,67.3,30.08,ESE,111,6.6,9.2,69,0.00,CLR,,0.00,WeatherDisplay:10.37,2013-01-13 19:10:00,
2013-01-13 14:16:00,77.9,66.9,30.08,East,96,5.6,8.1,69,0.00,CLR,,0.00,WeatherDisplay:10.37,2013-01-13 19:16:00,
2013-01-13 14:21:00,77.6,66.6,30.08,SE,128,5.4,6.9,69,0.00,CLR,,0.00,WeatherDisplay:10.37,2013-01-13 19:21:00,
2013-01-13 14:26:00,77.4,66.4,30.08,SSE,155,5.2,6.9,69,0.00,CLR,,0.00,WeatherDisplay:10.37,2013-01-13 19:26:00,
2013-01-13 14:31:00,77.3,66.3,30.08,East,86,3.9,8.1,69,0.00,CLR,,0.00,WeatherDisplay:10.37,2013-01-13 19:31:00,
2013-01-13 14:36:00,77.3,65.5,30.08,ESE,113,5.5,8.1,67,0.00,CLR,,0.00,WeatherDisplay:10.37,2013-01-13 19:36:00,
2013-01-13 14:41:00,77.7,66.3,30.07,ESE,123,4.7,12.7,68,0.00,CLR,,0.00,WeatherDisplay:10.37,2013-01-13 19:41:00,
2013-01-13 14:46:00,78.4,66.1,30.08,East,100,7.0,11.5,66,0.00,CLR,,0.00,WeatherDisplay:10.37,2013-01-13 19:46:00,
2013-01-13 14:51:00,78.6,66.7,30.08,East,84,5.1,8.1,67,0.00,CLR,,0.00,WeatherDisplay:10.37,2013-01-13 19:51:00,
2013-01-13 14:56:00,78.2,66.3,30.08,SSE,150,6.8,6.9,67,0.00,CLR,,0.00,WeatherDisplay:10.37,2013-01-13 19:56:00,
2013-01-13 15:01:00,77.9,65.6,30.08,East,96,5.7,8.1,66,0.00,CLR,,0.00,WeatherDisplay:10.37,2013-01-13 20:01:00,
2013-01-13 15:06:00,77.7,65.9,30.07,SE,138,3.3,4.6,67,0.00,CLR,,0.00,WeatherDisplay:10.37,2013-01-13 20:06:00,
2013-01-13 15:11:00,77.7,66.3,30.08,SE,146,5.5,8.1,68,0.00,CLR,,0.00,WeatherDisplay:10.37,2013-01-13 20:11:00,
2013-01-13 15:16:00,77.5,66.9,30.08,ESE,108,4.0,4.0,70,0.00,CLR,,0.00,WeatherDisplay:10.37,2013-01-13 20:16:00,
2013-01-13 15:21:00,77.1,67.4,30.08,ESE,121,4.3,4.6,72,0.00,CLR,,0.00,WeatherDisplay:10.37,2013-01-13 20:21:00,
2013-01-13 15:26:00,76.9,67.2,30.08,SE,138,3.8,9.2,72,0.00,CLR,,0.00,WeatherDisplay:10.37,2013-01-13 20:26:00,
2013-01-13 15:31:00,76.6,66.9,30.08,East,87,5.7,5.8,72,0.00,CLR,,0.00,WeatherDisplay:10.37,2013-01-13 20:31:00,
2013-01-13 15:36:00,76.4,67.1,30.08,SE,127,4.2,5.8,73,0.00,CLR,,0.00,WeatherDisplay:10.37,2013-01-13 20:36:00,
2013-01-13 15:41:00,76.6,67.3,30.09,East,94,4.5,8.1,73,0.00,CLR,,0.00,WeatherDisplay:10.37,2013-01-13 20:41:00,
2013-01-13 15:46:00,76.4,67.5,30.09,NE,56,5.6,6.9,74,0.00,CLR,,0.00,WeatherDisplay:10.37,2013-01-13 20:46:00,
2013-01-13 15:51:00,76.2,66.9,30.09,East,88,6.9,9.2,73,0.00,CLR,,0.00,WeatherDisplay:10.37,2013-01-13 20:51:00,
2013-01-13 15:56:00,76.2,67.3,30.10,SE,128,2.9,3.5,74,0.00,CLR,,0.00,WeatherDisplay:10.37,2013-01-13 20:56:00,
2013-01-13 16:01:00,76.1,67.2,30.10,ESE,108,5.5,9.2,74,0.00,CLR,,0.00,WeatherDisplay:10.37,2013-01-13 21:01:00,
2013-01-13 16:06:00,76.0,66.7,30.10,ESE,104,3.0,3.5,73,0.00,CLR,,0.00,WeatherDisplay:10.37,2013-01-13 21:06:00,
2013-01-13 16:11:00,75.8,66.9,30.10,East,99,4.0,5.8,74,0.00,CLR,,0.00,WeatherDisplay:10.37,2013-01-13 21:11:00,
2013-01-13 16:16:00,75.7,66.8,30.10,East,101,3.8,4.6,74,0.00,CLR,,0.00,WeatherDisplay:10.37,2013-01-13 21:16:00,
2013-01-13 16:21:00,75.6,67.1,30.10,ESE,121,4.1,6.9,75,0.00,CLR,,0.00,WeatherDisplay:10.37,2013-01-13 21:21:00,
2013-01-13 16:26:00,75.3,66.4,30.10,ESE,113,4.8,11.5,74,0.00,CLR,,0.00,WeatherDisplay:10.37,2013-01-13 21:26:00,
2013-01-13 16:31:00,75.2,66.3,30.10,ESE,111,5.6,11.5,74,0.00,CLR,,0.00,WeatherDisplay:10.37,2013-01-13 21:31:00,
2013-01-13 16:36:00,75.0,66.5,30.10,ESE,119,3.7,4.6,75,0.00,CLR,,0.00,WeatherDisplay:10.37,2013-01-13 21:36:00,
2013-01-13 16:41:00,74.9,66.1,30.11,ESE,111,3.3,8.1,74,0.00,CLR,,0.00,WeatherDisplay:10.37,2013-01-13 21:41:00,
2013-01-13 16:46:00,74.9,66.1,30.11,SE,125,3.6,5.8,74,0.00,CLR,,0.00,WeatherDisplay:10.37,2013-01-13 21:46:00,
2013-01-13 16:51:00,74.9,66.4,30.11,SE,141,1.6,3.5,75,0.00,CLR,,0.00,WeatherDisplay:10.37,2013-01-13 21:51:00,
2013-01-13 16:56:00,74.7,65.9,30.11,ESE,113,4.9,9.2,74,0.00,CLR,,0.00,WeatherDisplay:10.37,2013-01-13 21:56:00,
2013-01-13 17:01:00,74.7,65.9,30.11,SE,142,3.3,7.0,74,0.00,CLR,,0.00,WeatherDisplay:10.37,2013-01-13 22:01:00,
2013-01-13 17:06:00,74.7,65.5,30.11,East,98,3.4,3.5,73,0.00,CLR,,0.00,WeatherDisplay:10.37,2013-01-13 22:06:00,
2013-01-13 17:11:00,74.7,65.9,30.11,ESE,122,3.7,4.6,74,0.00,CLR,,0.00,WeatherDisplay:10.37,2013-01-13 22:11:00,
2013-01-13 17:16:00,74.8,65.6,30.11,ESE,118,3.1,5.8,73,0.00,CLR,,0.00,WeatherDisplay:10.37,2013-01-13 22:16:00,
2013-01-13 17:21:00,74.8,66.0,30.11,SSE,151,3.6,5.8,74,0.00,CLR,,0.00,WeatherDisplay:10.37,2013-01-13 22:21:00,
2013-01-13 17:26:00,74.7,65.9,30.11,East,83,4.5,6.9,74,0.00,CLR,,0.00,WeatherDisplay:10.37,2013-01-13 22:26:00,
2013-01-13 17:31:00,74.6,65.8,30.11,ESE,117,3.3,4.6,74,0.00,CLR,,0.00,WeatherDisplay:10.37,2013-01-13 22:31:00,
2013-01-13 17:36:00,74.5,65.7,30.11,East,90,3.0,6.9,74,0.00,CLR,,0.00,WeatherDisplay:10.37,2013-01-13 22:36:00,
2013-01-13 17:41:00,74.3,65.5,30.11,ESE,113,1.4,3.5,74,0.00,CLR,,0.00,WeatherDisplay:10.37,2013-01-13 22:41:00,
2013-01-13 17:46:00,74.1,65.7,30.12,ESE,110,2.1,3.5,75,0.00,CLR,,0.00,WeatherDisplay:10.37,2013-01-13 22:46:00,
2013-01-13 17:51:00,74.0,65.6,30.11,ESE,110,2.1,3.5,75,0.00,CLR,,0.00,WeatherDisplay:10.37,2013-01-13 22:51:00,
2013-01-13 17:56:00,73.8,65.4,30.11,ESE,110,1.6,3.5,75,0.00,CLR,,0.00,WeatherDisplay:10.37,2013-01-13 22:56:00,
2013-01-13 18:01:00,73.6,65.6,30.11,ESE,113,0.6,2.3,76,0.00,CLR,,0.00,WeatherDisplay:10.37,2013-01-13 23:01:00,
2013-01-13 18:06:00,73.5,65.8,30.12,ESE,113,0.0,1.1,77,0.00,CLR,,0.00,WeatherDisplay:10.37,2013-01-13 23:06:00,
2013-01-13 18:11:00,73.4,65.4,30.12,ESE,113,0.5,2.3,76,0.00,CLR,,0.00,WeatherDisplay:10.37,2013-01-13 23:11:00,
2013-01-13 18:16:00,73.3,65.3,30.12,ESE,115,2.9,3.5,76,0.00,CLR,,0.00,WeatherDisplay:10.37,2013-01-13 23:16:00,
2013-01-13 18:21:00,73.2,65.6,30.12,ESE,115,0.4,1.1,77,0.00,CLR,,0.00,WeatherDisplay:10.37,2013-01-13 23:21:00,
2013-01-13 18:26:00,73.2,65.6,30.12,ESE,115,0.1,1.1,77,0.00,CLR,,0.00,WeatherDisplay:10.37,2013-01-13 23:26:00,
2013-01-13 18:31:00,73.2,66.3,30.12,ESE,115,0.0,0.0,79,0.00,CLR,,0.00,WeatherDisplay:10.37,2013-01-13 23:31:00,
2013-01-13 18:36:00,73.0,65.7,30.12,ESE,115,0.0,0.0,78,0.00,CLR,,0.00,WeatherDisplay:10.37,2013-01-13 23:36:00,
2013-01-13 18:41:00,73.0,66.1,30.12,ESE,115,0.6,4.0,79,0.00,CLR,,0.00,WeatherDisplay:10.37,2013-01-13 23:41:00,
2013-01-13 18:46:00,73.1,65.8,30.12,ESE,110,3.1,4.6,78,0.00,CLR,,0.00,WeatherDisplay:10.37,2013-01-13 23:46:00,
2013-01-13 18:51:00,73.4,66.1,30.12,East,98,6.4,9.2,78,0.00,CLR,,0.00,WeatherDisplay:10.37,2013-01-13 23:51:00,
2013-01-13 18:56:00,73.8,66.5,30.12,East,101,4.3,5.8,78,0.00,CLR,,0.00,WeatherDisplay:10.37,2013-01-13 23:56:00,
2013-01-13 19:01:00,74.0,66.3,30.12,ESE,119,2.5,4.6,77,0.00,CLR,,0.00,WeatherDisplay:10.37,2013-01-14 00:01:00,
2013-01-13 19:06:00,74.1,66.0,30.12,East,92,3.0,4.6,76,0.00,CLR,,0.00,WeatherDisplay:10.37,2013-01-14 00:06:00,
2013-01-13 19:11:00,74.0,65.6,30.11,ESE,115,3.6,3.6,75,0.00,CLR,,0.00,WeatherDisplay:10.37,2013-01-14 00:11:00,
2013-01-13 19:16:00,74.0,65.6,30.12,East,101,4.3,6.9,75,0.00,CLR,,0.00,WeatherDisplay:10.37,2013-01-14 00:16:00,
2013-01-13 19:22:00,73.9,65.5,30.12,East,101,5.6,5.8,75,0.00,CLR,,0.00,WeatherDisplay:10.37,2013-01-14 00:22:00,
2013-01-13 19:27:00,73.7,65.7,30.12,SE,132,2.2,3.5,76,0.00,CLR,,0.00,WeatherDisplay:10.37,2013-01-14 00:27:00,
2013-01-13 19:32:00,73.6,65.6,30.12,ESE,120,2.8,3.5,76,0.00,CLR,,0.00,WeatherDisplay:10.37,2013-01-14 00:32:00,
2013-01-13 19:37:00,73.4,65.7,30.12,ESE,120,1.8,3.5,77,0.00,CLR,,0.00,WeatherDisplay:10.37,2013-01-14 00:37:00,
2013-01-13 19:42:00,73.3,65.7,30.12,ESE,117,0.9,2.3,77,0.00,CLR,,0.00,WeatherDisplay:10.37,2013-01-14 00:42:00,
2013-01-13 19:47:00,73.2,65.6,30.12,East,98,1.0,1.1,77,0.00,CLR,,0.00,WeatherDisplay:10.37,2013-01-14 00:47:00,
2013-01-13 19:52:00,73.1,65.5,30.12,ESE,117,2.9,3.5,77,0.00,CLR,,0.00,WeatherDisplay:10.37,2013-01-14 00:52:00,
2013-01-13 19:57:00,73.0,65.7,30.11,ESE,115,1.7,3.5,78,0.00,CLR,,0.00,WeatherDisplay:10.37,2013-01-14 00:57:00,
2013-01-13 20:02:00,72.9,65.6,30.11,ESE,115,2.3,4.6,78,0.00,CLR,,0.00,WeatherDisplay:10.37,2013-01-14 01:02:00,
2013-01-13 20:07:00,72.8,65.5,30.11,ESE,115,0.8,3.5,78,0.00,CLR,,0.00,WeatherDisplay:10.37,2013-01-14 01:07:00,
2013-01-13 20:12:00,72.7,65.4,30.11,ESE,115,1.9,3.5,78,0.00,CLR,,0.00,WeatherDisplay:10.37,2013-01-14 01:12:00,
2013-01-13 20:17:00,72.5,65.2,30.11,ESE,115,2.5,3.5,78,0.00,CLR,,0.00,WeatherDisplay:10.37,2013-01-14 01:17:00,
2013-01-13 20:22:00,72.4,65.2,30.11,ESE,115,1.5,1.5,78,0.00,CLR,,0.00,WeatherDisplay:10.37,2013-01-14 01:22:00,
2013-01-13 20:27:00,72.4,65.2,30.11,ESE,115,0.6,3.5,78,0.00,CLR,,0.00,WeatherDisplay:10.37,2013-01-14 01:27:00,
2013-01-13 20:32:00,72.2,65.0,30.11,ESE,115,0.6,2.3,78,0.00,CLR,,0.00,WeatherDisplay:10.37,2013-01-14 01:32:00,
2013-01-13 20:37:00,72.2,65.0,30.11,ESE,115,2.3,3.5,78,0.00,CLR,,0.00,WeatherDisplay:10.37,2013-01-14 01:37:00,
2013-01-13 20:42:00,72.1,64.9,30.10,ESE,115,0.9,2.3,78,0.00,CLR,,0.00,WeatherDisplay:10.37,2013-01-14 01:42:00,
2013-01-13 20:47:00,72.0,65.1,30.10,ESE,115,1.2,2.3,79,0.00,CLR,,0.00,WeatherDisplay:10.37,2013-01-14 01:47:00,
2013-01-13 20:52:00,72.0,65.1,30.10,ESE,115,0.3,0.0,79,0.00,CLR,,0.00,WeatherDisplay:10.37,2013-01-14 01:52:00,
2013-01-13 20:57:00,71.8,65.7,30.10,ESE,115,1.3,1.3,81,0.00,CLR,,0.00,WeatherDisplay:10.37,2013-01-14 01:57:00,
2013-01-13 21:02:00,71.4,65.3,30.10,ESE,115,2.3,3.5,81,0.00,CLR,,0.00,WeatherDisplay:10.37,2013-01-14 02:02:00,
2013-01-13 21:07:00,71.2,64.7,30.10,ESE,115,0.8,2.3,80,0.00,CLR,,0.00,WeatherDisplay:10.37,2013-01-14 02:07:00,
2013-01-13 21:12:00,71.1,64.6,30.09,ESE,115,2.6,3.5,80,0.00,CLR,,0.00,WeatherDisplay:10.37,2013-01-14 02:12:00,
2013-01-13 21:17:00,71.1,64.6,30.10,ESE,115,1.8,3.5,80,0.00,CLR,,0.00,WeatherDisplay:10.37,2013-01-14 02:17:00,
2013-01-13 21:22:00,71.2,64.7,30.09,ESE,115,0.2,1.1,80,0.00,CLR,,0.00,WeatherDisplay:10.37,2013-01-14 02:22:00,
2013-01-13 21:27:00,71.2,64.7,30.09,ESE,115,2.3,3.5,80,0.00,CLR,,0.00,WeatherDisplay:10.37,2013-01-14 02:27:00,
2013-01-13 21:32:00,71.2,64.4,30.09,ESE,115,2.0,3.5,79,0.00,CLR,,0.00,WeatherDisplay:10.37,2013-01-14 02:32:00,
2013-01-13 21:37:00,71.4,64.2,30.09,ESE,109,3.7,4.6,78,0.00,CLR,,0.00,WeatherDisplay:10.37,2013-01-14 02:37:00,
2013-01-13 21:42:00,71.6,64.0,30.09,ESE,107,2.6,3.5,77,0.00,CLR,,0.00,WeatherDisplay:10.37,2013-01-14 02:42:00,
2013-01-13 21:47:00,71.8,64.2,30.09,ESE,107,2.0,2.3,77,0.00,CLR,,0.00,WeatherDisplay:10.37,2013-01-14 02:47:00,
2013-01-13 21:52:00,71.9,63.9,30.09,SE,124,2.8,3.5,76,0.00,CLR,,0.00,WeatherDisplay:10.37,2013-01-14 02:52:00,
2013-01-13 21:57:00,72.0,64.4,30.09,ESE,108,2.5,4.6,77,0.00,CLR,,0.00,WeatherDisplay:10.37,2013-01-14 02:57:00,
2013-01-13 22:02:00,72.2,64.2,30.09,SE,136,3.2,3.5,76,0.00,CLR,,0.00,WeatherDisplay:10.37,2013-01-14 03:02:00,
2013-01-13 22:07:00,72.2,63.8,30.09,ESE,117,4.5,5.8,75,0.00,CLR,,0.00,WeatherDisplay:10.37,2013-01-14 03:07:00,
2013-01-13 22:12:00,72.4,64.0,30.09,ESE,123,2.6,3.5,75,0.00,CLR,,0.00,WeatherDisplay:10.37,2013-01-14 03:12:00,
2013-01-13 22:17:00,72.4,64.0,30.10,ESE,120,1.8,2.3,75,0.00,CLR,,0.00,WeatherDisplay:10.37,2013-01-14 03:17:00,
2013-01-13 22:22:00,72.4,64.0,30.10,ESE,103,1.7,3.5,75,0.00,CLR,,0.00,WeatherDisplay:10.37,2013-01-14 03:22:00,
2013-01-13 22:27:00,72.5,64.1,30.10,ESE,109,0.2,1.1,75,0.00,CLR,,0.00,WeatherDisplay:10.37,2013-01-14 03:27:00,
2013-01-13 22:32:00,72.5,64.1,30.11,East,101,3.2,6.9,75,0.00,CLR,,0.00,WeatherDisplay:10.37,2013-01-14 03:32:00,
2013-01-13 22:37:00,72.6,64.2,30.11,East,101,1.2,2.3,75,0.00,CLR,,0.00,WeatherDisplay:10.37,2013-01-14 03:37:00,
2013-01-13 22:42:00,72.6,64.2,30.11,East,96,3.8,5.8,75,0.00,CLR,,0.00,WeatherDisplay:10.37,2013-01-14 03:42:00,
2013-01-13 22:47:00,72.5,63.7,30.11,East,96,2.8,4.6,74,0.00,CLR,,0.00,WeatherDisplay:10.37,2013-01-14 03:47:00,
2013-01-13 22:52:00,72.4,63.6,30.11,East,101,2.2,4.6,74,0.00,CLR,,0.00,WeatherDisplay:10.37,2013-01-14 03:52:00,
2013-01-13 22:57:00,72.3,63.5,30.11,East,101,3.0,5.8,74,0.00,CLR,,0.00,WeatherDisplay:10.37,2013-01-14 03:57:00,
2013-01-13 23:02:00,72.2,63.4,30.11,East,101,0.9,2.0,74,0.00,CLR,,0.00,WeatherDisplay:10.37,2013-01-14 04:02:00,
2013-01-13 23:07:00,72.1,63.7,30.11,East,101,1.6,4.6,75,0.00,CLR,,0.00,WeatherDisplay:10.37,2013-01-14 04:07:00,
2013-01-13 23:12:00,72.0,63.6,30.11,East,101,0.8,1.1,75,0.00,CLR,,0.00,WeatherDisplay:10.37,2013-01-14 04:12:00,
2013-01-13 23:17:00,71.8,64.2,30.11,East,101,1.0,2.3,77,0.00,CLR,,0.00,WeatherDisplay:10.37,2013-01-14 04:17:00,
2013-01-13 23:22:00,71.5,63.5,30.10,East,101,0.4,2.3,76,0.00,CLR,,0.00,WeatherDisplay:10.37,2013-01-14 04:22:00,
2013-01-13 23:28:00,71.2,63.2,30.10,East,101,1.0,2.3,76,0.00,CLR,,0.00,WeatherDisplay:10.37,2013-01-14 04:28:00,
2013-01-13 23:33:00,71.1,63.5,30.10,East,101,0.9,2.3,77,0.00,CLR,,0.00,WeatherDisplay:10.37,2013-01-14 04:33:00,
2013-01-13 23:38:00,70.9,63.3,30.10,East,101,0.8,2.3,77,0.00,CLR,,0.00,WeatherDisplay:10.37,2013-01-14 04:38:00,
2013-01-13 23:43:00,70.8,63.6,30.11,East,101,0.0,0.0,78,0.00,CLR,,0.00,WeatherDisplay:10.37,2013-01-14 04:43:00,
2013-01-13 23:48:00,70.6,64.1,30.11,East,101,0.1,0.0,80,0.00,CLR,,0.00,WeatherDisplay:10.37,2013-01-14 04:48:00,
2013-01-13 23:53:00,70.3,63.8,30.11,East,101,0.0,0.0,80,0.00,CLR,,0.00,WeatherDisplay:10.37,2013-01-14 04:53:00,
2013-01-13 23:58:00,70.1,64.3,30.11,East,101,0.0,0.0,82,0.00,CLR,,0.00,WeatherDisplay:10.37,2013-01-14 04:58:00,